Weather in Klimenki

Russia / Belgorod Oblast     50°03′13″N   38°22′49″E
temp.,
°C
wind,
m/s
gust,
m/s
humid.,
%
clouds,
%
prec.,
mm/h
press.,
hPa
HPBL,
m
13 april, tue
tue1300:00+12e227347 0.0 102222
03:00+10ese497879 0.0 1023169
06:00+10e497837 0.0 1023170
09:00+15ese61155100 0.0 1023546
12:00+19ese811385 0.0 10211342
15:00+18se8125289 0.0 10211536
18:00+16sse7116418 0.2 10211197
21:00+12sse358437 0.2 1022108
14 april, wed
wed1400:00+10se0090100 0.0 102110
03:00+10nne119068 0.1 102011
06:00+9ene229099 0.0 101913
09:00+13se4653100 0.0 1019424
12:00+17se675185 0.0 10181234
15:00+18sse4841100 0.0 10162594
18:00+16se2449100 0.0 1016254
21:00+13ese4854100 0.0 1017201
15 april, thu
thu1500:00+12s1165100 0.0 101522
03:00+11e2265100 0.0 101522
06:00+12ese1164100 0.0 101410
09:00+12wnw2266100 0.1 1015204
12:00+15ene235588 0.0 1014939
15:00+16s3350100 0.1 10131421
18:00+16ese225033 0.0 1012167
21:00
16 april, fri
fri1600:00+10sw3683100 0.0 1014297
03:00+10sw2485100 0.0 1013211
06:00+8ssw369343 0.0 1014213
09:00+11ssw45655 0.0 1015831
12:00+14ssw554832 0.0 10151483
15:00+15ssw4540100 0.0 10152238
18:00+12wsw455492 0.0 1016567
21:00+10wnw4862100 0.0 1016351
17 april, sat
sat1700:00+9sw236395 0.0 1018107
03:00+7w22705 0.0 101817
06:00+6wsw1274100 0.0 101821
09:00+10w3359100 0.0 1018660
12:00+12nw4450100 0.1 10191561
15:00+12nnw445684 0.1 10181199
18:00+11nw456781 0.1 1018764
21:00+9nw1577100 0.1 1019254